QPF
0.02 0.02 0.03 0.03 0.02 0.01 0.01 0.02 0.03 0.05 0.06 0.06 0.04 0.04 0.04 0.04 0.04 0.04 0.06 0.06 0.06 0.07 0.07 0.07 0.09 0.13 0.17 0.20 0.22 0.24 0.27 0.29 0.32 0.32 0.29 0.25 0.21 0.16 0.11 0.07 0.05 0.03 0.03
0.01 0.01 0.01 0.01 0.01 0.01 0.01 0.01 0.02 0.03 0.04 0.04 0.04 0.04 0.04 0.05 0.05 0.04 0.05 0.06 0.06 0.06 0.06 0.06 0.06 0.08 0.11 0.14 0.16 0.17 0.20 0.23 0.27 0.30 0.29 0.25 0.21 0.15 0.10 0.08 0.05 0.03 0.02
0.01 0.01 0.01 0.01 0.01 0.01 0.01 0.01 0.02 0.02 0.02 0.02 0.02 0.02 0.02 0.03 0.04 0.05 0.05 0.05 0.06 0.06 0.06 0.06 0.06 0.08 0.10 0.12 0.14 0.16 0.18 0.19 0.20 0.21 0.20 0.18 0.15 0.11 0.08 0.06 0.04 0.02 0.01
0.01 0.01 0.01 0.01 0.01 0.01 0.01 0.01 0.01 0.01 0.01 0.01 0.01 0.01 0.01 0.02 0.03 0.04 0.04 0.05 0.06 0.07 0.07 0.07 0.07 0.07 0.08 0.09 0.11 0.13 0.15 0.16 0.16 0.14 0.12 0.11 0.09 0.06 0.05 0.04 0.03 0.02 0.01
0.01 0.02 0.02 0.02 0.02 0.02 0.01 0.01 0.01 0.01 0.01 0.01 0.00 0.00 0.01 0.01 0.02 0.03 0.04 0.05 0.06 0.07 0.08 0.08 0.08 0.09 0.10 0.10 0.10 0.11 0.11 0.11 0.10 0.08 0.07 0.06 0.05 0.04 0.03 0.02 0.02 0.01 0.01
0.01 0.02 0.02 0.03 0.04 0.03 0.02 0.02 0.02 0.01 0.01 0.01 0.01 0.01 0.01 0.01 0.02 0.03 0.04 0.06 0.07 0.08 0.09 0.10 0.10 0.11 0.11 0.11 0.11 0.10 0.11 0.09 0.06 0.05 0.04 0.03 0.02 0.02 0.02 0.01 0.01 0.02 0.02
0.01 0.01 0.02 0.03 0.03 0.03 0.03 0.02 0.02 0.02 0.02 0.02 0.02 0.01 0.02 0.02 0.03 0.04 0.06 0.07 0.08 0.09 0.08 0.09 0.08 0.09 0.09 0.08 0.08 0.07 0.07 0.05 0.04 0.03 0.02 0.02 0.02 0.02 0.02 0.02 0.02 0.03 0.03
0.02 0.02 0.03 0.04 0.05 0.04 0.03 0.02 0.03 0.04 0.04 0.04 0.04 0.03 0.02 0.02 0.03 0.04 0.05 0.07 0.07 0.07 0.07 0.07 0.08 0.08 0.07 0.06 0.05 0.04 0.04 0.03 0.02 0.02 0.02 0.01 0.01 0.01 0.02 0.02 0.02 0.02 0.03
0.03 0.03 0.04 0.05 0.06 0.06 0.05 0.03 0.03 0.04 0.05 0.04 0.04 0.03 0.03 0.03 0.03 0.03 0.04 0.05 0.06 0.06 0.05 0.06 0.06 0.06 0.05 0.04 0.04 0.03 0.02 0.02 0.01 0.01 0.00 0.00 0.00 0.00 0.00 0.02 0.02 0.03 0.04
0.04 0.04 0.04 0.04 0.06 0.07 0.06 0.05 0.04 0.04 0.04 0.03 0.03 0.03 0.03 0.03 0.02 0.03 0.04 0.04 0.05 0.05 0.03 0.03 0.03 0.03 0.02 0.02 0.03 0.03 0.02 0.01 0.01 0.01 0.01 0.00 0.00 0.00 0.00 0.02 0.03 0.03 0.03
0.03 0.03 0.04 0.04 0.04 0.06 0.06 0.06 0.05 0.05 0.04 0.03 0.03 0.03 0.02 0.02 0.02 0.02 0.03 0.03 0.04 0.04 0.03 0.02 0.01 0.01 0.00 0.00 0.01 0.01 0.00 0.01 0.02 0.02 0.02 0.02 0.02 0.01 0.01 0.01 0.02 0.02 0.03
0.04 0.04 0.05 0.04 0.03 0.05 0.09 0.08 0.08 0.08 0.07 0.06 0.05 0.03 0.02 0.01 0.01 0.01 0.01 0.02 0.02 0.03 0.03 0.01 0.01 0.00 0.00 0.00 0.00 0.00 0.00 0.00 0.01 0.01 0.02 0.02 0.02 0.02 0.01 0.01 0.01 0.01 0.01
0.05 0.07 0.06 0.04 0.04 0.06 0.08 0.09 0.08 0.08 0.07 0.05 0.05 0.04 0.02 0.01 0.01 0.01 0.01 0.01 0.01 0.01 0.01 0.00 0.00 0.00 0.00 0.00 0.00 0.00 0.00 0.01 0.01 0.01 0.01 0.02 0.01 0.01 0.01 0.01 0.01 0.01 0.00
0.08 0.08 0.06 0.05 0.05 0.06 0.06 0.06 0.05 0.05 0.06 0.05 0.04 0.02 0.02 0.02 0.01 0.01 0.01 0.00 0.00 0.00 0.00 0.00 0.00 0.00 0.00 0.00 0.00 0.00 0.00 0.00 0.01 0.01 0.01 0.01 0.01 0.01 0.01 0.01 0.01 0.01 0.01
0.08 0.07 0.06 0.06 0.05 0.05 0.03 0.02 0.02 0.01 0.02 0.03 0.03 0.03 0.02 0.02 0.01 0.01 0.01 0.01 0.01 0.00 0.00 0.00 0.00 0.00 0.01 0.01 0.00 0.00 0.00 0.00 0.00 0.01 0.01 0.01 0.01 0.01 0.01 0.01 0.01 0.01 0.01
0.08 0.06 0.06 0.05 0.04 0.03 0.01 0.01 0.01 0.01 0.01 0.01 0.01 0.01 0.00 0.00 0.00 0.00 0.00 0.00 0.00 0.00 0.00 0.01 0.00 0.00 0.00 0.01 0.00 0.00 0.00 0.00 0.00 0.00 0.00 0.01 0.01 0.01 0.01 0.01 0.01 0.01 0.01
0.07 0.06 0.05 0.04 0.04 0.03 0.02 0.02 0.02 0.01 0.01 0.00 0.00 0.00 0.00 0.00 0.00 0.00 0.00 0.00 0.00 0.00 0.01 0.01 0.00 0.00 0.00 0.00 0.00 0.00 0.00 0.00 0.00 0.00 0.00 0.00 0.00 0.01 0.01 0.01 0.01 0.01 0.01
0.03 0.03 0.03 0.04 0.04 0.03 0.02 0.02 0.02 0.02 0.01 0.01 0.00 0.00 0.00 0.00 0.00 0.00 0.00 0.00 0.00 0.00 0.00 0.00 0.00 0.00 0.00 0.00 0.00 0.00 0.00 0.00 0.00 0.00 0.00 0.00 0.00 0.01 0.01 0.01 0.01 0.00 0.00
0.02 0.02 0.02 0.02 0.01 0.01 0.01 0.01 0.01 0.01 0.01 0.01 0.00 0.00 0.00 0.00 0.00 0.00 0.00 0.00 0.01 0.00 0.00 0.00 0.00 0.00 0.00 0.00 0.00 0.00 0.00 0.00 0.00 0.00 0.00 0.00 0.00 0.00 0.00 0.00 0.00 0.00 0.00
0.01 0.01 0.01 0.01 0.00 0.00 0.00 0.01 0.01 0.00 0.00 0.00 0.00 0.00 0.00 0.00 0.00 0.00 0.00 0.00 0.01 0.00 0.00 0.00 0.00 0.00 0.00 0.00 0.00 0.00 0.00 0.00 0.00 0.00 0.00 0.00 0.00 0.00 0.00 0.00 0.00 0.00 0.00
0.01 0.00 0.00 0.00 0.00 0.00 0.00 0.00 0.00 0.00 0.00 0.00 0.00 0.00 0.00 0.00 0.00 0.00 0.00 0.00 0.00 0.00 0.00 0.00 0.00 0.00 0.00 0.00 0.00 0.00 0.00 0.00 0.00 0.00 0.00 0.00 0.00 0.00 0.00 0.00 0.00 0.00 0.00
0.00 0.00 0.00 0.00 0.00 0.00 0.00 0.00 0.00 0.00 0.00 0.00 0.00 0.00 0.00 0.00 0.00 0.00 0.00 0.00 0.00 0.00 0.00 0.00 0.00 0.00 0.00 0.00 0.00 0.00 0.00 0.00 0.00 0.00 0.00 0.00 0.00 0.00 0.00 0.00 0.00 0.00 0.00
0.00 0.00 0.00 0.00 0.00 0.00 0.00 0.00 0.00 0.00 0.00 0.00 0.00 0.00 0.00 0.00 0.00 0.00 0.00 0.00 0.00 0.00 0.00 0.00 0.00 0.00 0.00 0.00 0.00 0.00 0.00 0.00 0.00 0.00 0.00 0.00 0.00 0.00 0.00 0.00 0.00 0.00 0.00
0.00 0.00 0.00 0.00 0.00 0.00 0.00 0.00 0.00 0.00 0.00 0.00 0.00 0.00 0.00 0.00 0.00 0.00 0.00 0.00 0.00 0.00 0.00 0.00 0.00 0.00 0.00 0.00 0.00 0.00 0.00 0.00 0.00 0.00 0.00 0.00 0.00 0.00 0.00 0.00 0.00 0.00 0.00
0.00 0.00 0.00 0.00 0.00 0.00 0.00 0.00 0.00 0.00 0.00 0.00 0.00 0.00 0.00 0.00 0.00 0.00 0.00 0.00 0.00 0.00 0.00 0.00 0.00 0.00 0.00 0.00 0.00 0.00 0.00 0.00 0.00 0.00 0.00 0.00 0.00 0.00 0.00 0.00 0.00 0.00 0.00
0.00 0.00 0.00 0.00 0.00 0.00 0.00 0.00 0.00 0.00 0.00 0.00 0.00 0.00 0.00 0.00 0.00 0.00 0.00 0.00 0.00 0.00 0.00 0.00 0.00 0.00 0.00 0.00 0.00 0.00 0.00 0.00 0.00 0.00 0.00 0.00 0.00 0.00 0.00 0.00 0.00 0.00 0.00
MSLP
1018.96 1019.12 1019.26 1019.34 1019.34 1019.23 1019.02 1018.72 1018.35 1017.95 1017.56 1017.21 1016.92 1016.68 1016.50 1016.37 1016.26 1016.16 1016.06 1015.97 1015.88 1015.80 1015.77 1015.79 1015.90 1016.11 1016.44 1016.90 1017.49 1018.19 1018.99 1019.86 1020.75 1021.64 1022.48 1023.24 1023.90 1024.45 1024.90 1025.25 1025.53 1025.76 1025.97
1019.40 1019.61 1019.80 1019.93 1019.96 1019.89 1019.69 1019.39 1018.99 1018.55 1018.11 1017.69 1017.33 1017.05 1016.85 1016.71 1016.63 1016.58 1016.55 1016.52 1016.49 1016.47 1016.46 1016.48 1016.56 1016.73 1017.00 1017.40 1017.92 1018.56 1019.31 1020.13 1020.99 1021.85 1022.65 1023.38 1023.99 1024.50 1024.90 1025.20 1025.43 1025.62 1025.79
1019.80 1020.05 1020.27 1020.44 1020.51 1020.47 1020.29 1020.00 1019.61 1019.16 1018.69 1018.24 1017.85 1017.54 1017.32 1017.18 1017.11 1017.10 1017.11 1017.13 1017.15 1017.16 1017.18 1017.21 1017.28 1017.41 1017.64 1017.99 1018.45 1019.02 1019.70 1020.45 1021.23 1022.01 1022.74 1023.39 1023.93 1024.36 1024.70 1024.94 1025.13 1025.28 1025.43
1020.12 1020.38 1020.63 1020.82 1020.93 1020.91 1020.78 1020.52 1020.16 1019.73 1019.27 1018.83 1018.44 1018.12 1017.89 1017.75 1017.69 1017.69 1017.71 1017.76 1017.79 1017.83 1017.86 1017.89 1017.96 1018.08 1018.28 1018.58 1018.99 1019.50 1020.10 1020.76 1021.45 1022.12 1022.75 1023.29 1023.74 1024.10 1024.36 1024.55 1024.70 1024.82 1024.95
1020.31 1020.58 1020.83 1021.04 1021.17 1021.19 1021.10 1020.90 1020.60 1020.23 1019.82 1019.42 1019.06 1018.76 1018.54 1018.40 1018.32 1018.31 1018.32 1018.36 1018.39 1018.42 1018.45 1018.49 1018.56 1018.68 1018.86 1019.14 1019.50 1019.95 1020.47 1021.04 1021.62 1022.18 1022.70 1023.14 1023.50 1023.77 1023.97 1024.12 1024.24 1024.36 1024.48
1020.36 1020.63 1020.88 1021.09 1021.25 1021.31 1021.27 1021.14 1020.92 1020.64 1020.32 1019.99 1019.68 1019.42 1019.21 1019.07 1018.98 1018.93 1018.91 1018.91 1018.93 1018.94 1018.96 1019.00 1019.07 1019.19 1019.37 1019.62 1019.95 1020.35 1020.80 1021.28 1021.77 1022.23 1022.64 1022.98 1023.26 1023.47 1023.63 1023.75 1023.86 1023.97 1024.10
1020.30 1020.55 1020.80 1021.02 1021.20 1021.30 1021.33 1021.28 1021.15 1020.97 1020.75 1020.51 1020.27 1020.06 1019.87 1019.72 1019.61 1019.53 1019.48 1019.44 1019.41 1019.40 1019.41 1019.45 1019.52 1019.64 1019.82 1020.07 1020.37 1020.73 1021.12 1021.53 1021.93 1022.30 1022.62 1022.89 1023.10 1023.27 1023.40 1023.51 1023.62 1023.74 1023.88
1020.18 1020.43 1020.67 1020.90 1021.10 1021.24 1021.33 1021.36 1021.34 1021.26 1021.14 1020.99 1020.83 1020.66 1020.51 1020.36 1020.23 1020.12 1020.03 1019.95 1019.89 1019.86 1019.86 1019.89 1019.97 1020.10 1020.28 1020.52 1020.81 1021.13 1021.47 1021.82 1022.14 1022.44 1022.70 1022.91 1023.07 1023.21 1023.32 1023.43 1023.54 1023.67 1023.81
1020.09 1020.33 1020.58 1020.82 1021.04 1021.23 1021.38 1021.48 1021.54 1021.55 1021.52 1021.46 1021.37 1021.25 1021.12 1020.98 1020.85 1020.71 1020.59 1020.49 1020.41 1020.36 1020.35 1020.39 1020.48 1020.61 1020.80 1021.03 1021.30 1021.59 1021.89 1022.18 1022.45 1022.68 1022.89 1023.05 1023.18 1023.30 1023.40 1023.50 1023.61 1023.74 1023.87
1020.09 1020.34 1020.60 1020.85 1021.10 1021.32 1021.52 1021.69 1021.82 1021.90 1021.95 1021.95 1021.91 1021.84 1021.73 1021.61 1021.47 1021.33 1021.20 1021.09 1021.00 1020.95 1020.95 1020.99 1021.08 1021.23 1021.41 1021.63 1021.88 1022.14 1022.39 1022.63 1022.84 1023.03 1023.18 1023.30 1023.41 1023.50 1023.58 1023.68 1023.78 1023.88 1024.00
1020.20 1020.47 1020.75 1021.03 1021.30 1021.56 1021.80 1022.01 1022.19 1022.33 1022.43 1022.48 1022.48 1022.44 1022.36 1022.25 1022.12 1021.99 1021.86 1021.75 1021.67 1021.63 1021.64 1021.69 1021.79 1021.93 1022.11 1022.31 1022.52 1022.74 1022.95 1023.13 1023.30 1023.43 1023.54 1023.62 1023.69 1023.76 1023.82 1023.89 1023.97 1024.05 1024.12
1020.42 1020.71 1021.01 1021.32 1021.62 1021.92 1022.19 1022.44 1022.65 1022.83 1022.96 1023.03 1023.06 1023.04 1022.98 1022.89 1022.78 1022.66 1022.55 1022.46 1022.40 1022.37 1022.39 1022.44 1022.54 1022.67 1022.83 1023.00 1023.18 1023.35 1023.50 1023.64 1023.75 1023.84 1023.90 1023.95 1023.99 1024.02 1024.05 1024.09 1024.13 1024.17 1024.21
1020.68 1021.00 1021.33 1021.67 1022.00 1022.33 1022.63 1022.90 1023.14 1023.34 1023.48 1023.58 1023.62 1023.62 1023.58 1023.51 1023.42 1023.32 1023.23 1023.15 1023.10 1023.09 1023.11 1023.16 1023.25 1023.36 1023.48 1023.62 1023.75 1023.87 1023.98 1024.07 1024.14 1024.18 1024.21 1024.22 1024.23 1024.23 1024.23 1024.23 1024.23 1024.23 1024.22
1020.93 1021.27 1021.63 1021.99 1022.35 1022.70 1023.02 1023.32 1023.57 1023.78 1023.94 1024.05 1024.11 1024.12 1024.10 1024.04 1023.97 1023.89 1023.81 1023.75 1023.71 1023.70 1023.71 1023.75 1023.81 1023.89 1023.98 1024.07 1024.16 1024.24 1024.31 1024.36 1024.40 1024.41 1024.41 1024.40 1024.38 1024.35 1024.32 1024.29 1024.25 1024.21 1024.17
1021.11 1021.47 1021.84 1022.22 1022.60 1022.96 1023.30 1023.61 1023.88 1024.10 1024.27 1024.39 1024.46 1024.49 1024.48 1024.44 1024.38 1024.32 1024.25 1024.19 1024.15 1024.12 1024.11 1024.12 1024.15 1024.19 1024.24 1024.30 1024.35 1024.40 1024.44 1024.48 1024.49 1024.50 1024.49 1024.46 1024.43 1024.38 1024.33 1024.27 1024.20 1024.13 1024.06
1021.21 1021.56 1021.93 1022.31 1022.69 1023.06 1023.41 1023.73 1024.01 1024.24 1024.42 1024.56 1024.64 1024.69 1024.70 1024.67 1024.63 1024.57 1024.50 1024.43 1024.37 1024.32 1024.28 1024.25 1024.24 1024.24 1024.26 1024.28 1024.31 1024.35 1024.39 1024.42 1024.44 1024.45 1024.45 1024.42 1024.39 1024.33 1024.27 1024.19 1024.10 1024.01 1023.92
1021.24 1021.57 1021.93 1022.29 1022.66 1023.02 1023.37 1023.68 1023.96 1024.20 1024.40 1024.55 1024.66 1024.72 1024.75 1024.74 1024.70 1024.64 1024.57 1024.48 1024.40 1024.31 1024.23 1024.17 1024.12 1024.09 1024.08 1024.09 1024.12 1024.16 1024.20 1024.25 1024.29 1024.32 1024.34 1024.33 1024.30 1024.24 1024.17 1024.08 1023.98 1023.87 1023.76
1021.27 1021.57 1021.89 1022.22 1022.56 1022.90 1023.22 1023.52 1023.80 1024.04 1024.25 1024.42 1024.54 1024.63 1024.67 1024.68 1024.65 1024.59 1024.50 1024.40 1024.28 1024.16 1024.05 1023.96 1023.88 1023.83 1023.81 1023.82 1023.86 1023.92 1023.99 1024.06 1024.13 1024.19 1024.22 1024.23 1024.21 1024.15 1024.07 1023.97 1023.85 1023.73 1023.60
1021.37 1021.62 1021.89 1022.17 1022.46 1022.75 1023.04 1023.31 1023.57 1023.81 1024.02 1024.20 1024.35 1024.45 1024.52 1024.54 1024.52 1024.46 1024.36 1024.24 1024.11 1023.97 1023.83 1023.72 1023.63 1023.58 1023.56 1023.59 1023.65 1023.74 1023.84 1023.94 1024.04 1024.12 1024.17 1024.18 1024.15 1024.09 1024.00 1023.88 1023.74 1023.59 1023.44
1021.56 1021.77 1021.98 1022.20 1022.43 1022.66 1022.89 1023.13 1023.36 1023.58 1023.79 1023.98 1024.14 1024.26 1024.34 1024.38 1024.37 1024.31 1024.22 1024.09 1023.95 1023.80 1023.66 1023.55 1023.47 1023.43 1023.43 1023.49 1023.58 1023.69 1023.83 1023.96 1024.07 1024.16 1024.21 1024.21 1024.17 1024.09 1023.97 1023.82 1023.65 1023.47 1023.29
1021.86 1022.02 1022.17 1022.33 1022.48 1022.65 1022.82 1023.00 1023.20 1023.39 1023.59 1023.78 1023.94 1024.08 1024.18 1024.23 1024.23 1024.19 1024.10 1023.99 1023.85 1023.72 1023.59 1023.49 1023.44 1023.43 1023.47 1023.55 1023.67 1023.82 1023.98 1024.12 1024.24 1024.32 1024.35 1024.33 1024.26 1024.14 1023.98 1023.79 1023.59 1023.38 1023.17
1022.21 1022.33 1022.43 1022.51 1022.60 1022.70 1022.81 1022.93 1023.08 1023.25 1023.43 1023.61 1023.77 1023.92 1024.03 1024.09 1024.11 1024.09 1024.02 1023.92 1023.81 1023.70 1023.61 1023.54 1023.53 1023.55 1023.63 1023.76 1023.91 1024.08 1024.25 1024.40 1024.51 1024.57 1024.57 1024.51 1024.39 1024.23 1024.03 1023.80 1023.56 1023.32 1023.08
1022.53 1022.61 1022.67 1022.70 1022.72 1022.76 1022.81 1022.88 1022.98 1023.12 1023.27 1023.43 1023.60 1023.74 1023.86 1023.94 1023.98 1023.97 1023.93 1023.86 1023.78 1023.70 1023.65 1023.63 1023.66 1023.74 1023.86 1024.02 1024.21 1024.40 1024.57 1024.72 1024.81 1024.85 1024.81 1024.71 1024.55 1024.34 1024.09 1023.83 1023.55 1023.28 1023.02
1022.74 1022.79 1022.81 1022.80 1022.77 1022.75 1022.75 1022.78 1022.84 1022.94 1023.07 1023.22 1023.37 1023.51 1023.63 1023.72 1023.77 1023.78 1023.76 1023.72 1023.67 1023.64 1023.63 1023.66 1023.73 1023.86 1024.02 1024.23 1024.44 1024.65 1024.84 1024.98 1025.06 1025.07 1025.00 1024.87 1024.67 1024.43 1024.15 1023.85 1023.56 1023.26 1022.98
1022.77 1022.80 1022.79 1022.74 1022.68 1022.62 1022.58 1022.57 1022.60 1022.67 1022.78 1022.91 1023.05 1023.18 1023.30 1023.39 1023.45 1023.47 1023.47 1023.45 1023.43 1023.43 1023.46 1023.54 1023.66 1023.83 1024.03 1024.27 1024.52 1024.75 1024.94 1025.09 1025.16 1025.16 1025.09 1024.93 1024.72 1024.45 1024.16 1023.85 1023.53 1023.23 1022.93
1022.59 1022.61 1022.57 1022.50 1022.41 1022.33 1022.26 1022.23 1022.24 1022.29 1022.38 1022.49 1022.62 1022.74 1022.85 1022.94 1022.99 1023.02 1023.03 1023.03 1023.03 1023.06 1023.12 1023.23 1023.38 1023.59 1023.83 1024.10 1024.38 1024.63 1024.85 1025.01 1025.09 1025.10 1025.02 1024.87 1024.65 1024.39 1024.08 1023.77 1023.44 1023.13 1022.82
Thickness
5614 5613 5612 5612 5612 5613 5613 5613 5614 5616 5618 5620 5623 5624 5626 5628 5629 5631 5633 5634 5636 5638 5639 5640 5640 5639 5639 5638 5636 5632 5629 5626 5616 5606 5602 5598 5596 5593 5590 5587 5585 5582 5579
5606 5605 5604 5604 5604 5604 5604 5604 5605 5607 5609 5611 5613 5614 5616 5617 5619 5620 5622 5624 5626 5628 5629 5630 5630 5630 5630 5629 5627 5624 5621 5617 5612 5603 5595 5590 5587 5585 5582 5580 5577 5574 5572
5598 5596 5595 5594 5594 5594 5595 5595 5597 5598 5600 5601 5603 5603 5605 5606 5608 5610 5612 5614 5616 5617 5618 5619 5620 5621 5621 5620 5618 5616 5613 5608 5604 5597 5589 5584 5580 5578 5575 5574 5572 5569 5566
5589 5587 5585 5585 5585 5585 5586 5586 5587 5589 5590 5591 5592 5593 5594 5595 5596 5599 5601 5603 5606 5607 5607 5609 5610 5611 5611 5611 5609 5606 5603 5599 5594 5588 5582 5577 5574 5572 5570 5567 5565 5563 5562
5580 5577 5576 5575 5575 5575 5576 5576 5577 5578 5579 5579 5580 5581 5582 5583 5584 5587 5591 5593 5594 5595 5596 5597 5598 5599 5600 5601 5599 5596 5594 5590 5586 5581 5576 5572 5569 5566 5564 5563 5560 5558 5556
5570 5568 5567 5566 5565 5565 5565 5566 5566 5567 5567 5567 5568 5569 5569 5570 5572 5576 5580 5582 5584 5585 5585 5586 5587 5588 5588 5588 5587 5586 5585 5582 5578 5575 5571 5567 5563 5562 5560 5559 5555 5552 5548
5560 5559 5557 5556 5556 5555 5556 5555 5555 5555 5556 5555 5556 5557 5558 5558 5562 5565 5569 5572 5573 5575 5577 5578 5578 5576 5576 5577 5576 5575 5574 5572 5571 5569 5565 5561 5558 5556 5555 5552 5550 5547 5544
5551 5549 5548 5547 5546 5545 5545 5545 5545 5545 5545 5545 5545 5546 5547 5548 5550 5554 5558 5561 5563 5564 5565 5566 5565 5565 5566 5567 5568 5566 5563 5561 5561 5560 5557 5554 5552 5550 5547 5546 5544 5542 5541
5543 5541 5540 5539 5537 5537 5536 5535 5535 5535 5536 5536 5536 5537 5538 5538 5541 5545 5549 5551 5552 5552 5553 5554 5555 5555 5555 5558 5558 5556 5553 5551 5550 5550 5548 5546 5545 5543 5541 5540 5538 5535 5532
5535 5533 5532 5531 5529 5528 5527 5527 5528 5528 5528 5528 5528 5529 5530 5530 5532 5536 5541 5544 5544 5543 5543 5544 5544 5545 5546 5548 5548 5548 5545 5544 5543 5542 5540 5540 5539 5537 5536 5534 5532 5530 5527
5528 5526 5525 5523 5522 5521 5521 5521 5521 5522 5522 5522 5521 5522 5523 5524 5526 5530 5534 5537 5539 5539 5538 5536 5535 5537 5538 5539 5540 5538 5536 5537 5537 5537 5536 5535 5533 5532 5531 5530 5528 5526 5523
5521 5519 5517 5517 5518 5516 5516 5516 5517 5517 5517 5517 5517 5517 5518 5519 5520 5523 5527 5530 5532 5532 5531 5530 5529 5531 5531 5532 5533 5532 5533 5533 5533 5532 5531 5529 5528 5527 5526 5526 5524 5523 5521
5515 5513 5512 5511 5511 5511 5512 5512 5513 5513 5514 5514 5513 5513 5514 5515 5516 5518 5521 5523 5525 5525 5524 5524 5524 5525 5526 5528 5528 5529 5529 5529 5529 5527 5525 5524 5524 5524 5523 5522 5521 5520 5519
5511 5509 5508 5507 5507 5507 5508 5509 5509 5509 5509 5510 5511 5511 5511 5511 5512 5513 5516 5517 5518 5519 5520 5520 5521 5522 5522 5523 5524 5525 5525 5525 5524 5523 5522 5522 5522 5521 5520 5520 5519 5518 5517
5508 5507 5506 5505 5504 5503 5501 5500 5501 5499 5503 5505 5507 5507 5507 5505 5503 5505 5509 5511 5513 5513 5515 5518 5519 5519 5520 5520 5521 5522 5522 5522 5521 5520 5520 5519 5519 5519 5518 5519 5518 5517 5516
5507 5505 5505 5504 5503 5502 5500 5497 5494 5497 5498 5500 5501 5502 5500 5501 5501 5504 5506 5508 5510 5512 5515 5517 5518 5518 5519 5519 5519 5519 5519 5518 5518 5518 5517 5517 5516 5516 5516 5517 5518 5517 5515
5506 5505 5504 5504 5503 5503 5502 5500 5497 5495 5495 5496 5498 5499 5500 5500 5501 5503 5505 5508 5510 5512 5514 5517 5517 5517 5517 5518 5518 5517 5516 5516 5516 5516 5515 5515 5515 5515 5516 5516 5516 5515 5515
5507 5505 5505 5504 5504 5505 5504 5504 5503 5501 5499 5498 5497 5498 5499 5500 5502 5503 5505 5506 5511 5514 5515 5517 5517 5517 5517 5517 5516 5516 5515 5515 5515 5515 5514 5514 5515 5515 5515 5515 5515 5514 5514
5509 5507 5506 5506 5507 5507 5507 5508 5507 5506 5505 5503 5502 5500 5500 5501 5502 5504 5505 5508 5513 5516 5517 5518 5518 5518 5517 5517 5516 5516 5515 5515 5515 5514 5515 5515 5515 5515 5515 5515 5515 5514 5514
5510 5508 5508 5509 5510 5510 5511 5511 5511 5510 5510 5509 5509 5508 5506 5505 5507 5509 5510 5513 5516 5517 5518 5518 5518 5517 5517 5518 5518 5518 5517 5517 5517 5517 5517 5517 5517 5516 5516 5516 5515 5515 5515
5514 5512 5509 5512 5513 5514 5515 5515 5516 5516 5515 5514 5514 5513 5510 5513 5514 5515 5516 5517 5518 5519 5518 5518 5519 5520 5520 5520 5520 5520 5519 5520 5519 5519 5518 5518 5518 5517 5516 5516 5517 5517 5517
5520 5519 5518 5519 5519 5519 5519 5519 5520 5521 5521 5520 5518 5517 5516 5518 5521 5522 5522 5522 5522 5521 5521 5521 5523 5523 5522 5522 5521 5520 5521 5521 5520 5518 5518 5518 5518 5518 5518 5518 5518 5518 5518
5526 5526 5525 5525 5525 5522 5523 5525 5526 5526 5527 5527 5526 5525 5524 5525 5527 5527 5527 5527 5526 5526 5525 5525 5524 5525 5525 5523 5522 5522 5522 5521 5519 5518 5517 5517 5518 5518 5519 5519 5519 5519 5519
5533 5532 5532 5531 5530 5530 5531 5531 5532 5533 5533 5533 5533 5533 5533 5532 5533 5533 5533 5532 5532 5531 5530 5529 5529 5528 5527 5526 5525 5524 5523 5521 5520 5519 5517 5517 5517 5519 5520 5520 5520 5521 5520
5539 5539 5538 5537 5537 5538 5538 5539 5540 5540 5540 5541 5541 5541 5541 5541 5540 5540 5539 5538 5537 5536 5536 5535 5534 5533 5532 5531 5529 5527 5526 5524 5522 5521 5519 5519 5519 5520 5521 5521 5521 5521 5520
5546 5546 5545 5545 5544 5545 5546 5546 5547 5547 5548 5548 5548 5548 5548 5548 5548 5547 5546 5545 5544 5544 5542 5542 5540 5539 5538 5536 5534 5532 5530 5528 5526 5524 5522 5521 5521 5522 5522 5522 5522 5522 5521